Terug naar catalogus

THOR AGENA D R/B

ActiefLEO
NORAD 727·ROCKET BODY·🇺🇸 United States

Gelanceerd Jan 11, 1964 vanaf Vandenberg Space Force Base

Loading…

Volgende Passages (komende 24 uur)

TLE

VersSource: Space-Track

Epoch: Sep 14, 2026, 20:10 UTC

1 00727U 64001A   26257.84055818 -.00000005  00000-0  35699-4 0  9990
2 00727  69.9041  97.9743 0016213 289.6983  70.2372 13.95806182189668

Volg THOR AGENA D R/B in realtime met AllMySat

Download on the App Store